When you browse on this site, cookies collect data to enhance your experience and personalize the content and advertising you see.
Visit our Privacy Policy to learn more. By continuing to use the site, you agree to this use of cookies and data.
  • In Romania
  • List of Countries
  • For 7 days
  • Water Temperature
  • Satellite Maps
  • Weather Map
  • Weather Widgets
  • user-avatar
    Login

    Hourly Weather Valencia

    Today, 26 March, Tuesday

    Time Temperature Precipitation Wind Pressure Humidity
    00:00 +25°C° 0 mm 2 mps 717 mmHg 89%
    01:00 +24°C° 0 mm 1 mps 717 mmHg 91%
    02:00 +24°C° 0 mm 1 mps 717 mmHg 90%
    03:00 +24°C° 0 mm 1 mps 717 mmHg 90%
    04:00 +24°C° 0 mm 1 mps 717 mmHg 90%
    05:00 +24°C° 0 mm 1 mps 717 mmHg 85%
    06:00 +23°C° 0 mm 0 mps 718 mmHg 80%
    07:00 +24°C° 0 mm 0 mps 718 mmHg 76%
    08:00 +27°C° 0 mm 0 mps 718 mmHg 64%
    09:00 +32°C° 0 mm 1 mps 719 mmHg 52%
    10:00 +35°C° 0 mm 1 mps 719 mmHg 41%
    11:00 +35°C° 0 mm 1 mps 718 mmHg 39%
    12:00 +36°C° 0 mm 1 mps 718 mmHg 37%
    13:00 +37°C° 0 mm 1 mps 717 mmHg 35%
    14:00 +37°C° 0 mm 2 mps 716 mmHg 38%
    15:00 +35°C° 0 mm 2 mps 716 mmHg 42%
    16:00 +34°C° 0 mm 2 mps 715 mmHg 45%
    17:00 +31°C° 0 mm 2 mps 715 mmHg 56%
    18:00 +29°C° 0 mm 2 mps 715 mmHg 67%
    19:00 +27°C° 0 mm 2 mps 715 mmHg 78%
    20:00 +26°C° 0 mm 2 mps 716 mmHg 79%
    21:00 +26°C° 0 mm 2 mps 716 mmHg 81%
    22:00 +25°C° 0 mm 2 mps 717 mmHg 82%
    23:00 +25°C° 0 mm 2 mps 717 mmHg 83%

    Tomorrow, 27 March, Wednesday

    Time Temperature Precipitation Wind Pressure Humidity
    00:00 +24°C° 0 mm 2 mps 716 mmHg 84%
    01:00 +24°C° 0 mm 2 mps 716 mmHg 86%
    02:00 +24°C° 0 mm 2 mps 716 mmHg 86%
    03:00 +24°C° 0 mm 2 mps 716 mmHg 87%
    04:00 +23°C° 0 mm 2 mps 716 mmHg 87%
    05:00 +24°C° 0 mm 2 mps 716 mmHg 85%
    06:00 +24°C° 0 mm 1 mps 717 mmHg 83%
    07:00 +25°C° 0 mm 1 mps 717 mmHg 81%
    08:00 +28°C° 0 mm 1 mps 718 mmHg 68%
    09:00 +31°C° 0 mm 1 mps 719 mmHg 55%
    10:00 +34°C° 0 mm 1 mps 719 mmHg 42%
    11:00 +35°C° 0 mm 1 mps 718 mmHg 40%
    12:00 +36°C° 0 mm 1 mps 718 mmHg 39%
    13:00 +38°C° 0 mm 2 mps 717 mmHg 37%
    14:00 +36°C° 0 mm 2 mps 716 mmHg 42%
    15:00 +35°C° 0 mm 2 mps 715 mmHg 47%
    16:00 +33°C° 0 mm 3 mps 715 mmHg 52%
    17:00 +30°C° 0 mm 2 mps 715 mmHg 62%
    18:00 +28°C° 0 mm 2 mps 715 mmHg 71%
    19:00 +26°C° 0 mm 2 mps 716 mmHg 81%
    20:00 +26°C° 0 mm 2 mps 716 mmHg 81%
    21:00 +26°C° 0 mm 2 mps 717 mmHg 82%
    22:00 +25°C° 0 mm 2 mps 717 mmHg 82%
    23:00 +25°C° 0 mm 2 mps 717 mmHg 84%

    Day after tomorrow, 28 March, Thursday

    Time Temperature Precipitation Wind Pressure Humidity
    00:00 +25°C° 0 mm 2 mps 717 mmHg 86%
    01:00 +24°C° 0 mm 2 mps 716 mmHg 88%
    02:00 +24°C° 0 mm 2 mps 716 mmHg 88%
    03:00 +24°C° 0 mm 2 mps 716 mmHg 89%
    04:00 +24°C° 0 mm 2 mps 716 mmHg 89%
    05:00 +24°C° 0 mm 1 mps 717 mmHg 87%
    06:00 +25°C° 0 mm 1 mps 717 mmHg 85%
    07:00 +25°C° 0 mm 1 mps 718 mmHg 83%
    08:00 +28°C° 0 mm 1 mps 718 mmHg 71%
    09:00 +31°C° 0 mm 1 mps 719 mmHg 58%
    10:00 +34°C° 0 mm 1 mps 720 mmHg 46%
    11:00 +35°C° 0.1 mm 1 mps 719 mmHg 44%
    12:00 +36°C° 0.1 mm 1 mps 718 mmHg 41%
    13:00 +37°C° 0.1 mm 2 mps 717 mmHg 39%
    14:00 +36°C° 0.2 mm 2 mps 716 mmHg 44%
    15:00 +35°C° 0.2 mm 2 mps 716 mmHg 48%
    16:00 +32°C° 0.2 mm 2 mps 715 mmHg 53%
    17:00 +30°C° 0.3 mm 2 mps 715 mmHg 63%
    18:00 +29°C° 0.3 mm 2 mps 716 mmHg 72%
    19:00 +27°C° 0.3 mm 2 mps 716 mmHg 82%
    20:00 +27°C° 0 mm 2 mps 717 mmHg 83%
    21:00 +26°C° 0 mm 2 mps 717 mmHg 85%
    22:00 +26°C° 0 mm 2 mps 717 mmHg 86%
    23:00 +25°C° 0 mm 2 mps 717 mmHg 87%

    29 March, Friday

    Time Temperature Precipitation Wind Pressure Humidity
    00:00 +25°C° 0 mm 2 mps 717 mmHg 88%
    01:00 +25°C° 0 mm 1 mps 716 mmHg 89%
    02:00 +25°C° 0 mm 1 mps 716 mmHg 89%
    03:00 +25°C° 0 mm 1 mps 716 mmHg 90%
    04:00 +25°C° 0 mm 1 mps 716 mmHg 91%
    05:00 +25°C° 0 mm 1 mps 717 mmHg 88%
    06:00 +26°C° 0 mm 1 mps 717 mmHg 86%
    07:00 +26°C° 0 mm 1 mps 718 mmHg 83%
    08:00 +28°C° 0.2 mm 1 mps 718 mmHg 73%
    09:00 +31°C° 0.2 mm 1 mps 719 mmHg 62%
    10:00 +33°C° 0.2 mm 1 mps 719 mmHg 52%
    11:00 +33°C° 1.5 mm 1 mps 718 mmHg 54%
    12:00 +32°C° 1.5 mm 1 mps 717 mmHg 57%
    13:00 +31°C° 1.5 mm 1 mps 716 mmHg 59%
    14:00 +31°C° 1.9 mm 1 mps 716 mmHg 62%
    15:00 +30°C° 1.9 mm 1 mps 715 mmHg 65%
    16:00 +30°C° 1.9 mm 2 mps 715 mmHg 68%
    17:00 +29°C° 1.2 mm 1 mps 715 mmHg 72%
    18:00 +28°C° 1.2 mm 1 mps 716 mmHg 76%
    19:00 +27°C° 1.2 mm 1 mps 716 mmHg 81%
    20:00 +27°C° 0.3 mm 1 mps 717 mmHg 82%
    21:00 +26°C° 0.3 mm 1 mps 717 mmHg 83%
    22:00 +26°C° 0.3 mm 2 mps 717 mmHg 84%
    23:00 +26°C° 0.2 mm 2 mps 717 mmHg 87%

    30 March, Saturday

    Time Temperature Precipitation Wind Pressure Humidity
    00:00 +25°C° 0.2 mm 2 mps 716 mmHg 89%
    01:00 +25°C° 0.2 mm 2 mps 716 mmHg 91%
    02:00 +25°C° 0.7 mm 2 mps 716 mmHg 91%
    03:00 +25°C° 0.7 mm 1 mps 716 mmHg 90%
    04:00 +25°C° 0.7 mm 1 mps 716 mmHg 90%
    05:00 +25°C° 0.6 mm 1 mps 717 mmHg 88%
    06:00 +26°C° 0.6 mm 1 mps 717 mmHg 85%
    07:00 +26°C° 0.6 mm 1 mps 718 mmHg 83%
    08:00 +28°C° 0.5 mm 1 mps 718 mmHg 75%
    09:00 +30°C° 0.5 mm 1 mps 718 mmHg 66%
    10:00 +32°C° 0.5 mm 1 mps 719 mmHg 58%
    11:00 +32°C° 1 mm 1 mps 718 mmHg 59%
    12:00 +31°C° 1 mm 1 mps 717 mmHg 60%
    13:00 +31°C° 1 mm 1 mps 716 mmHg 61%
    14:00 +30°C° 1.6 mm 1 mps 716 mmHg 67%
    15:00 +29°C° 1.6 mm 1 mps 715 mmHg 73%
    16:00 +28°C° 1.6 mm 1 mps 715 mmHg 78%
    17:00 +27°C° 1.1 mm 1 mps 716 mmHg 80%
    18:00 +27°C° 1.1 mm 1 mps 716 mmHg 83%
    19:00 +26°C° 1.1 mm 1 mps 717 mmHg 85%
    20:00 +26°C° 0.6 mm 1 mps 717 mmHg 86%
    21:00 +26°C° 0.6 mm 1 mps 717 mmHg 87%
    22:00 +26°C° 0.6 mm 1 mps 717 mmHg 88%
    23:00 +26°C° 0.8 mm 1 mps 717 mmHg 89%

    31 March, Sunday

    Time Temperature Precipitation Wind Pressure Humidity
    00:00 +25°C° 0.8 mm 1 mps 717 mmHg 89%
    01:00 +25°C° 0.8 mm 1 mps 716 mmHg 90%
    02:00 +25°C° 0.3 mm 1 mps 716 mmHg 91%
    03:00 +25°C° 0.3 mm 1 mps 716 mmHg 91%
    04:00 +25°C° 0.3 mm 1 mps 716 mmHg 92%
    05:00 +25°C° 0.1 mm 1 mps 717 mmHg 90%
    06:00 +26°C° 0.1 mm 1 mps 717 mmHg 88%
    07:00 +26°C° 0.1 mm 1 mps 718 mmHg 86%
    08:00 +28°C° 0.1 mm 1 mps 718 mmHg 78%
    09:00 +30°C° 0.1 mm 1 mps 719 mmHg 70%
    10:00 +32°C° 0.1 mm 1 mps 719 mmHg 63%
    11:00 +32°C° 0.9 mm 1 mps 718 mmHg 62%
    12:00 +32°C° 0.9 mm 1 mps 717 mmHg 62%
    13:00 +32°C° 0.9 mm 1 mps 717 mmHg 61%
    14:00 +31°C° 1.8 mm 1 mps 716 mmHg 66%
    15:00 +30°C° 1.8 mm 1 mps 716 mmHg 71%
    16:00 +29°C° 1.8 mm 1 mps 715 mmHg 75%
    17:00 +28°C° 1.2 mm 1 mps 716 mmHg 79%
    18:00 +27°C° 1.2 mm 1 mps 716 mmHg 83%
    19:00 +26°C° 1.2 mm 1 mps 716 mmHg 87%
    20:00 +26°C° 0.1 mm 1 mps 717 mmHg 88%
    21:00 +26°C° 0.1 mm 1 mps 717 mmHg 90%
    22:00 +26°C° 0.1 mm 1 mps 717 mmHg 91%
    23:00 +25°C° 0 mm 1 mps 717 mmHg 92%
    Show more